Wind_Speed
43 44 36 35 35 35 34 31 32 30 27 26 26 23 26 28 29 32 30 27 26 27 29 32 34 37 38 40 40 38 34 35 33 39 52 42 40 21 43 42 40 46 41 44 32
42 41 37 35 36 38 36 28 29 31 29 29 30 30 26 27 31 29 28 27 28 29 28 31 34 38 43 43 44 43 40 44 39 34 44 59 49 19 32 35 49 56 57 56 56
40 40 39 39 40 41 38 35 29 32 31 32 33 32 27 28 32 27 26 27 27 31 28 29 32 35 39 48 48 44 47 47 44 39 37 38 51 58 34 27 39 41 44 52 56
39 39 39 40 42 43 39 35 32 32 34 36 37 36 30 31 32 26 26 28 28 30 28 28 27 32 33 37 52 52 50 52 49 42 40 38 35 38 38 43 26 36 36 40 43
40 39 40 43 43 42 38 39 34 32 34 38 38 39 35 34 33 33 28 27 30 29 29 28 30 31 35 32 48 57 56 53 53 46 43 41 37 32 40 36 38 33 21 35 35
42 43 43 44 46 42 39 39 32 33 32 39 35 37 37 37 37 35 33 29 31 31 31 30 34 36 35 31 32 59 58 54 56 52 46 42 43 42 42 50 55 42 38 38 42
44 43 42 44 44 41 39 37 34 35 34 32 39 36 36 38 37 38 38 35 35 35 32 31 31 36 40 35 34 48 62 58 55 56 51 46 40 43 43 50 55 52 43 40 36
42 43 44 42 40 38 37 38 38 39 39 37 38 41 41 39 40 43 43 40 35 35 36 33 32 32 36 35 34 36 59 62 60 57 57 54 45 48 47 52 51 52 47 54 38
45 44 42 40 40 39 39 40 40 41 41 40 40 41 42 41 41 42 42 42 39 37 37 36 33 35 34 37 35 34 49 64 61 54 56 57 52 54 54 56 55 52 58 51 52
46 44 41 43 43 43 44 43 42 42 42 44 43 42 43 47 47 46 46 45 41 40 38 39 41 39 39 37 38 36 36 51 54 57 58 54 55 59 60 59 51 47 55 56 55
46 45 47 46 46 47 45 45 44 45 45 46 46 48 48 46 45 47 45 43 43 43 43 41 46 42 39 43 41 39 39 51 51 54 57 60 57 59 61 63 57 55 55 59 51
48 50 50 50 49 48 47 46 45 47 46 45 47 51 53 51 49 50 48 47 46 47 46 45 50 50 47 40 47 46 43 46 57 65 62 64 54 65 64 64 62 62 64 63 58
51 53 53 53 51 48 45 44 45 46 46 47 48 48 49 52 54 54 54 52 51 49 48 47 50 53 54 51 46 53 51 51 53 61 60 63 65 57 65 59 58 58 58 61 65
41 40 41 42 43 45 45 45 46 47 47 47 50 52 51 51 53 57 56 56 55 51 49 51 55 55 55 56 58 50 58 58 56 59 57 61 65 62 59 65 64 63 63 65 65
34 33 33 33 36 39 43 45 45 46 46 46 47 49 51 52 53 51 55 57 55 53 53 56 59 60 60 57 56 57 57 56 59 60 58 65 62 65 68 66 70 71 72 75 74
22 23 25 27 28 31 33 35 37 38 41 42 43 45 47 47 52 52 55 54 54 55 55 58 67 65 64 65 62 60 62 62 60 65 64 70 78 72 81 80 79 81 80 78 75
24 26 28 30 32 34 36 38 40 43 43 46 48 50 52 47 51 53 54 59 51 53 56 63 70 67 62 63 69 66 64 64 67 68 65 80 77 76 80 81 83 84 88 83 74
29 32 32 34 37 39 41 43 46 48 52 53 54 57 59 56 56 58 61 56 53 59 66 65 71 68 69 68 68 71 72 72 74 73 69 75 76 77 80 85 84 87 87 83 69
32 35 38 41 43 45 47 49 50 52 53 55 58 61 65 66 66 67 67 68 64 64 67 69 73 77 77 73 76 79 83 82 81 78 73 75 78 77 78 80 85 84 85 86 71
38 39 40 42 43 45 46 48 50 53 54 57 59 61 63 64 68 71 72 71 75 72 74 74 71 80 82 85 85 83 88 89 90 84 80 77 80 80 81 80 83 82 85 85 80
38 41 41 41 43 45 48 50 51 55 56 56 58 57 58 57 56 57 60 61 65 70 76 78 80 82 86 90 94 95 92 92 94 90 87 85 84 86 89 89 87 85 81 82 82
40 39 41 44 46 48 50 53 53 53 54 58 57 57 53 51 50 49 50 51 52 53 57 64 69 75 81 89 98 100 101 101 99 98 94 94 94 97 91 90 90 90 87 87 89
38 40 45 46 48 50 51 53 55 55 56 58 58 55 49 47 44 45 47 50 52 53 54 57 59 62 66 72 81 87 93 101 105 106 104 103 105 104 101 98 95 97 97 95 96
43 44 48 49 52 50 53 54 52 58 58 58 54 45 39 38 41 43 46 51 53 52 54 54 56 61 62 64 66 74 82 84 88 91 96 106 109 112 110 105 105 106 106 103 102
48 49 48 49 55 52 52 52 54 54 56 54 43 35 33 39 45 49 50 52 55 52 54 55 58 63 58 50 46 50 60 69 71 75 83 90 93 97 104 109 112 113 108 107 107
48 50 53 53 50 50 51 52 55 56 55 41 36 38 39 45 49 54 54 49 50 52 56 54 51 49 50 42 38 38 42 49 53 54 57 64 72 83 90 93 97 104 110 111 111
52 51 51 51 52 49 50 55 57 53 48 39 41 44 46 52 51 47 45 47 49 51 52 49 44 45 49 46 40 36 37 41 47 52 55 58 60 65 69 76 82 87 93 96 103
Wind_Direction
276 282 280 281 284 287 288 287 287 287 289 284 273 258 266 275 279 285 280 276 266 261 262 258 253 251 244 238 233 232 227 229 224 205 204 178 176 305 226 236 251 259 255 271 275
277 278 276 281 285 288 293 293 284 287 280 276 270 268 264 277 278 286 282 269 263 264 266 263 258 253 248 240 238 232 228 230 228 224 206 211 197 151 245 262 271 269 271 272 266
273 274 272 276 282 287 290 291 283 279 270 264 264 265 270 280 282 285 284 268 262 264 270 273 268 262 254 243 236 233 229 232 231 228 225 221 228 224 220 202 255 277 269 268 268
269 271 271 277 283 283 287 285 280 275 267 260 259 262 273 279 283 286 292 268 268 267 273 274 273 273 272 259 236 232 230 231 233 230 226 227 222 215 211 221 232 244 244 263 271
271 273 275 282 286 287 284 280 274 269 267 261 260 266 273 276 279 285 292 275 269 270 272 274 269 271 282 282 237 230 231 230 233 231 230 229 226 208 199 180 181 219 246 263 266
271 274 279 280 282 285 280 274 268 266 264 254 257 264 269 271 278 281 287 279 272 270 270 272 270 270 279 290 263 228 229 231 230 233 229 235 228 218 209 203 217 233 248 259 270
274 280 283 282 282 278 275 269 264 264 266 267 254 264 265 272 275 280 283 285 272 269 270 273 265 261 269 276 286 238 228 229 231 231 230 229 235 230 218 206 232 245 250 245 262
279 281 280 277 277 275 275 270 262 262 264 263 262 261 261 264 270 272 277 279 274 271 266 266 269 263 268 274 281 255 229 229 227 229 230 230 226 239 221 221 237 250 257 246 250
278 277 275 275 274 275 275 274 268 267 265 267 263 262 262 263 268 272 274 276 272 270 265 265 266 262 260 268 273 264 236 230 231 228 235 234 230 235 231 227 232 247 252 241 267
273 274 272 272 274 275 276 275 273 271 267 263 263 262 260 261 262 268 271 272 269 269 264 260 263 266 260 256 261 272 241 235 239 235 229 237 234 240 240 238 234 254 261 267 266
271 273 274 275 275 274 275 274 272 272 270 269 265 263 264 263 264 268 266 269 269 270 265 261 261 263 271 260 252 258 252 231 229 236 228 229 232 238 242 251 247 247 250 261 265
274 275 274 275 275 275 274 273 273 274 273 271 270 266 263 263 265 267 265 266 268 268 268 262 260 258 260 264 257 250 250 246 240 239 237 231 235 231 240 246 250 252 257 258 255
275 275 274 273 272 272 271 272 273 274 272 272 272 272 271 267 263 265 266 266 267 268 266 266 263 261 258 257 259 255 248 244 244 244 243 239 239 236 237 238 243 246 249 254 255
275 274 273 271 269 268 270 272 277 276 274 273 274 273 273 271 268 264 263 266 265 266 265 263 257 257 258 258 256 257 253 248 247 249 249 247 240 242 241 244 243 243 241 243 246
279 277 276 275 272 272 273 277 278 278 276 275 273 274 272 271 271 266 264 263 262 265 265 263 260 260 259 258 259 259 261 261 254 252 251 250 246 242 247 246 241 239 239 243 246
290 289 287 286 284 282 282 282 283 284 283 281 278 277 273 270 270 269 267 260 262 263 261 261 261 260 260 260 258 258 259 256 256 250 246 248 246 243 243 244 248 250 250 250 254
292 291 289 287 284 282 282 280 280 281 280 281 282 280 277 274 273 270 266 266 263 258 260 259 259 261 262 260 259 255 256 257 253 250 248 249 248 245 250 249 250 251 253 254 254
290 291 291 290 289 289 289 288 287 287 287 286 285 283 281 278 273 273 272 268 264 257 253 257 265 258 263 262 261 261 258 255 252 252 249 252 252 251 249 253 252 252 255 257 255
292 291 290 289 289 289 288 287 288 288 287 287 286 285 284 282 279 277 274 273 266 261 259 258 258 265 262 258 257 258 258 257 255 251 252 254 256 254 255 255 257 258 259 259 255
292 290 290 290 290 291 291 291 290 289 290 290 290 288 287 286 283 278 274 272 271 266 262 261 256 259 262 264 260 256 256 257 256 254 250 249 256 260 257 255 257 258 260 261 261
295 294 295 295 295 297 297 297 298 299 297 298 296 296 292 291 288 285 279 274 271 269 266 263 260 256 258 259 261 262 257 257 259 259 257 257 255 255 256 257 258 258 258 262 264
297 295 296 298 301 299 298 299 299 303 301 304 304 302 298 294 292 289 283 281 277 274 272 269 267 265 261 260 258 257 260 260 257 257 256 256 256 254 254 255 256 259 259 258 260
298 297 297 298 299 304 304 306 305 306 305 306 305 302 296 293 293 292 291 287 284 284 283 281 276 270 267 265 263 262 261 258 259 256 255 255 254 254 254 252 252 254 254 254 256
300 301 301 301 304 306 305 306 306 307 308 309 306 301 297 294 294 293 293 295 294 292 288 286 283 279 274 270 267 269 264 259 258 257 258 257 254 253 253 252 252 252 254 255 254
305 306 306 309 306 306 307 305 305 307 308 310 306 305 300 299 302 300 298 299 297 296 293 291 292 292 288 282 274 265 264 265 260 255 255 255 256 255 254 251 248 252 253 253 254
306 308 304 304 307 308 306 304 306 308 307 307 301 303 300 299 300 301 302 302 300 299 298 299 300 297 295 294 289 276 269 265 266 264 259 256 257 258 257 256 253 250 248 250 252
306 307 310 307 307 307 305 306 305 306 306 302 304 304 303 302 303 302 304 305 305 305 307 308 310 309 304 302 298 287 277 266 261 261 262 263 260 258 256 256 255 253 252 250 248
Height
10893 10893 10893 10893 10893 10893 10893 10894 10894 10895 10896 10896 10897 10897 10898 10898 10896 10895 10893 10893 10892 10894 10894 10895 10897 10898 10900 10903 10906 10911 10915 10917 10919 10924 10928 10928 10927 10950 10940 10942 10943 10940 10941 10937 10935
10887 10887 10886 10886 10886 10887 10887 10887 10887 10888 10889 10890 10890 10890 10891 10892 10889 10890 10886 10886 10887 10887 10887 10887 10889 10890 10891 10895 10898 10903 10908 10907 10914 10919 10924 10923 10925 10948 10952 10954 10947 10936 10938 10939 10935
10880 10880 10880 10880 10880 10879 10880 10880 10880 10880 10880 10882 10883 10883 10884 10884 10882 10884 10880 10879 10880 10880 10879 10879 10879 10880 10880 10884 10889 10895 10896 10900 10906 10912 10916 10920 10922 10935 10952 10947 10946 10933 10925 10926 10930
10872 10873 10873 10872 10873 10873 10872 10873 10872 10872 10873 10875 10876 10876 10876 10878 10874 10877 10873 10872 10873 10872 10872 10870 10870 10870 10871 10871 10877 10884 10887 10891 10894 10902 10907 10908 10919 10934 10941 10939 10939 10920 10899 10908 10916
10865 10865 10865 10865 10865 10865 10864 10865 10865 10864 10866 10867 10868 10869 10869 10870 10868 10868 10867 10866 10865 10865 10864 10863 10862 10861 10861 10860 10863 10870 10875 10882 10884 10891 10896 10897 10912 10926 10926 10921 10909 10909 10901 10902 10905
10856 10856 10857 10857 10858 10857 10857 10857 10856 10857 10859 10859 10860 10860 10861 10862 10861 10861 10859 10859 10858 10858 10857 10855 10855 10854 10852 10851 10851 10856 10863 10871 10876 10880 10882 10887 10897 10909 10912 10910 10898 10898 10894 10900 10900
10847 10849 10849 10849 10849 10849 10849 10848 10848 10849 10850 10850 10851 10852 10852 10853 10853 10852 10852 10851 10849 10849 10848 10847 10847 10846 10843 10843 10842 10844 10851 10859 10864 10868 10872 10873 10883 10891 10899 10897 10890 10887 10889 10893 10898
10840 10840 10840 10840 10840 10841 10840 10840 10839 10841 10841 10842 10842 10843 10843 10844 10843 10844 10843 10842 10841 10840 10839 10839 10837 10837 10834 10835 10834 10833 10839 10846 10847 10857 10859 10863 10870 10872 10883 10886 10886 10884 10885 10891 10891
10832 10832 10832 10832 10833 10832 10832 10831 10831 10831 10832 10832 10833 10832 10833 10833 10833 10833 10833 10832 10832 10831 10830 10830 10829 10828 10828 10826 10826 10824 10827 10832 10843 10852 10851 10858 10859 10851 10861 10868 10878 10883 10879 10879 10882
10823 10823 10823 10824 10823 10823 10823 10821 10821 10821 10821 10821 10822 10822 10822 10822 10822 10822 10822 10822 10821 10821 10821 10822 10820 10818 10818 10818 10815 10816 10819 10827 10832 10836 10843 10846 10850 10843 10849 10852 10861 10863 10861 10863 10867
10815 10815 10814 10814 10813 10813 10812 10811 10811 10810 10810 10810 10811 10810 10810 10811 10811 10811 10811 10811 10811 10810 10811 10811 10809 10809 10810 10809 10807 10807 10810 10812 10815 10816 10829 10834 10836 10836 10835 10835 10851 10852 10850 10853 10855
10804 10804 10803 10802 10802 10801 10801 10801 10801 10800 10799 10799 10797 10796 10798 10799 10800 10797 10799 10799 10799 10798 10799 10800 10797 10797 10798 10797 10798 10798 10799 10803 10805 10805 10817 10823 10826 10826 10826 10828 10832 10837 10834 10837 10844
10793 10792 10791 10791 10790 10790 10789 10789 10789 10788 10788 10787 10784 10785 10784 10785 10787 10786 10784 10786 10786 10786 10787 10787 10784 10781 10783 10784 10784 10785 10788 10790 10793 10791 10803 10810 10816 10818 10816 10816 10819 10824 10823 10822 10825
10781 10780 10779 10778 10778 10778 10778 10777 10777 10776 10777 10778 10773 10770 10770 10770 10771 10771 10772 10770 10772 10773 10775 10772 10767 10765 10766 10767 10767 10775 10773 10777 10782 10784 10792 10793 10805 10808 10804 10804 10802 10803 10807 10804 10805
10772 10771 10770 10769 10769 10768 10768 10767 10765 10764 10764 10764 10761 10759 10757 10756 10753 10757 10755 10754 10759 10761 10760 10754 10750 10752 10753 10756 10758 10760 10767 10771 10772 10775 10780 10780 10784 10791 10782 10782 10779 10774 10778 10786 10793
10765 10764 10762 10761 10760 10759 10758 10757 10755 10753 10750 10749 10748 10745 10743 10745 10739 10740 10737 10740 10744 10745 10746 10740 10726 10736 10739 10740 10741 10745 10750 10751 10753 10756 10765 10755 10745 10765 10755 10763 10769 10771 10778 10787 10795
10759 10758 10756 10755 10753 10751 10750 10748 10746 10742 10743 10736 10734 10731 10728 10731 10727 10723 10723 10720 10733 10734 10725 10717 10709 10715 10723 10725 10720 10726 10730 10732 10733 10731 10741 10726 10738 10747 10742 10742 10751 10756 10748 10760 10784
10754 10752 10750 10747 10745 10743 10741 10738 10735 10733 10727 10724 10721 10716 10712 10715 10712 10708 10703 10709 10717 10714 10705 10704 10696 10704 10703 10704 10709 10704 10706 10708 10704 10707 10721 10714 10720 10728 10729 10722 10729 10732 10735 10743 10767
10748 10745 10742 10739 10736 10733 10730 10726 10723 10720 10715 10709 10705 10700 10694 10695 10692 10690 10688 10686 10693 10695 10688 10690 10692 10675 10676 10684 10684 10679 10677 10681 10682 10690 10703 10701 10697 10711 10714 10713 10704 10712 10716 10719 10747
10739 10736 10733 10729 10726 10722 10719 10715 10711 10706 10701 10696 10689 10684 10677 10673 10669 10667 10669 10666 10661 10669 10667 10667 10675 10662 10655 10654 10653 10653 10653 10650 10651 10669 10678 10686 10683 10685 10687 10688 10684 10696 10694 10697 10709
10731 10726 10724 10719 10715 10711 10706 10702 10699 10690 10687 10680 10673 10668 10661 10655 10650 10645 10644 10645 10639 10638 10639 10641 10644 10643 10637 10631 10619 10622 10632 10632 10632 10644 10655 10665 10670 10661 10657 10664 10668 10672 10680 10679 10684
10723 10718 10713 10710 10705 10700 10694 10688 10683 10678 10672 10665 10657 10652 10644 10639 10633 10628 10625 10622 10622 10618 10616 10614 10614 10614 10612 10603 10598 10595 10600 10601 10607 10613 10627 10630 10634 10624 10643 10647 10647 10649 10656 10659 10656
10712 10710 10703 10699 10695 10688 10680 10674 10668 10663 10656 10650 10642 10634 10629 10624 10620 10615 10610 10608 10604 10601 10597 10593 10590 10588 10585 10580 10570 10572 10574 10573 10572 10580 10589 10595 10593 10600 10611 10617 10623 10618 10619 10627 10627
10702 10698 10691 10686 10680 10678 10670 10663 10658 10645 10642 10633 10625 10619 10614 10610 10607 10604 10598 10592 10587 10585 10578 10572 10567 10562 10559 10559 10559 10540 10537 10541 10545 10550 10558 10555 10564 10567 10578 10590 10593 10594 10595 10600 10606
10691 10687 10682 10678 10664 10662 10656 10648 10643 10638 10629 10618 10612 10608 10605 10600 10594 10588 10585 10578 10568 10567 10560 10556 10549 10537 10532 10532 10532 10523 10515 10512 10516 10527 10525 10526 10530 10531 10538 10555 10558 10560 10576 10577 10579
10681 10675 10668 10663 10658 10651 10642 10635 10628 10622 10614 10611 10604 10598 10595 10590 10584 10576 10569 10564 10555 10550 10543 10539 10530 10520 10512 10511 10509 10506 10502 10498 10497 10500 10501 10503 10505 10505 10509 10514 10520 10533 10544 10547 10553
10667 10662 10657 10650 10643 10638 10632 10624 10615 10607 10602 10596 10592 10587 10584 10576 10569 10563 10557 10551 10544 10537 10528 10520 10514 10508 10498 10494 10492 10490 10486 10484 10481 10480 10480 10480 10482 10481 10484 10484 10490 10499 10506 10514 10522